Location: Deer Path Park
(40.5570°N, 74.8450°W)
Time: 23:37:39
(UTC-04:00)

Iridium 49 - Visible Passes

Search period start: 24 July 2014 00:00
Search period end: 03 August 2014 00:00
Orbit: 776 x 779 km, 86.4° (Epoch: 24 July)

Date Brightness Start Highest point End Pass type
(mag) Time Alt. Az. Time Alt. Az. Time Alt. Az.
24 Jul 6.4 03:15:14 33° SSE 03:17:26 60° E 03:22:34 10° N visible
24 Jul 7.8 04:55:43 10° WSW 04:58:35 15° WNW 05:01:37 10° NW visible
25 Jul 7.4 02:42:04 24° ESE 02:44:04 32° E 02:48:39 10° NNE visible
25 Jul 7.1 04:22:33 21° WSW 04:24:45 28° W 04:29:12 10° NNW visible
26 Jul 8.1 02:08:53 15° ESE 02:10:49 18° E 02:14:14 10° NE visible
26 Jul 6.3 03:49:23 36° SW 03:51:04 51° W 03:56:09 10° N visible
27 Jul 5.9 03:16:11 52° S 03:17:30 87° E 03:22:44 10° N visible
27 Jul 8.1 04:58:12 10° W 04:58:57 10° WNW 04:59:41 10° WNW visible
28 Jul 6.7 02:42:59 41° ESE 02:44:03 47° E 02:49:02 10° NNE visible
28 Jul 7.5 04:23:28 17° W 04:25:01 20° WNW 04:28:45 10° NNW visible
29 Jul 7.6 02:09:46 24° E 02:10:44 26° E 02:14:58 10° NNE visible
29 Jul 6.8 03:50:15 32° WSW 03:51:15 35° W 03:56:01 10° NNW visible
30 Jul 8.3 01:36:33 13° E 01:37:32 14° ENE 01:40:09 10° NE visible
30 Jul 6.0 03:17:02 60° WSW 03:17:37 65° W 03:22:48 10° N visible
31 Jul 6.1 02:43:48 67° ESE 02:44:06 69° E 02:49:17 10° N visible
31 Jul 7.9 04:24:17 13° W 04:25:21 14° WNW 04:27:52 10° NW visible
01 Aug 7.1 02:10:33 37° E 02:10:42 37° E 02:15:27 10° NNE visible
01 Aug 7.2 03:51:02 24° W 03:51:29 25° WNW 03:55:43 10° NNW visible
02 Aug 7.9 01:37:18 20° E 01:37:25 20° E 01:41:10 10° NE visible
02 Aug 6.5 03:17:47 44° W 03:17:47 44° W 03:22:45 10° N visible
